[[{"header":{"parameterUnit":"m.s-1","parameterCategory":1,"la1":30.2991,"la2":30.254,"lo1":-89.0895,"lo2":-89.0444,"dy":0.0017,"dx":0.0017,"nx":28,"ny":28,"refTime":"2024-12-06T03:00:00:Z","depth":0,"parameterNumber":2,"parameterNumberName":"U-component_of_WINDS"},"data":[0,0,0,0,0,0,0,0,0,0,0,0,0,0,0,0,0,0,0,0,0,0,0,0,0,0,0,0,0,0,0,0,0,0,0,0,0,0,0,0,0,0,0,0,0,0,0,0,0,0,0,0,0,0,0,0,0,0,-0.669,-0.669,0,-0.6703,-0.6703,-0.6703,-0.6681,-0.6681,-0.668,-0.6679,-0.6694,-0.6695,-0.6696,0,0,0,0,0,0,0,0,0,0,0,0,0,-0.6647,-0.6648,-0.669,-0.669,-0.669,-0.6702,-0.6703,-0.6703,-0.6681,-0.668,-0.668,-0.6679,-0.6693,-0.6695,-0.6696,0,0,0,0,0,0,0,0,0,0,0,0,0,-0.6663,-0.6648,-0.669,-0.6681,-0.668,-0.6702,-0.6703,-0.6703,-0.6682,-0.668,-0.6679,-0.6678,-0.6693,-0.6695,-0.6696,-0.6728,0,0,-0.6701,-0.6702,0,0,0,0,0,0,0,0,-0.6662,-0.6665,-0.6682,-0.6681,-0.6681,-0.6689,-0.6693,-0.6711,-0.6682,-0.6681,-0.6679,-0.6678,-0.6693,-0.6695,-0.67,-0.6729,-0.673,-0.6701,-0.6702,-0.6703,-0.6703,0,0,0,0,0,0,0,-0.6661,-0.6664,-0.6695,-0.6682,-0.6681,-0.6676,-0.6677,-0.6696,-0.6693,-0.6681,-0.6679,-0.6681,-0.6693,-0.6698,-0.67,-0.673,-0.6701,-0.6703,-0.6704,-0.6704,-0.6786,-0.6787,0,0,0,0,0,0,-0.6661,-0.6663,-0.6694,-0.6695,-0.6668,-0.6678,-0.6679,-0.6688,-0.6693,-0.6693,-0.6682,-0.668,-0.6696,-0.6698,-0.67,-0.6738,-0.6703,-0.6704,-0.6705,-0.6784,-0.6786,-0.6787,0,0,0,0,0,0,-0.666,-0.6664,-0.6694,-0.6679,-0.6682,-0.668,-0.6689,-0.6688,-0.6694,-0.6694,-0.6693,-0.6688,-0.6695,-0.6698,-0.6721,-0.6738,-0.6705,-0.6707,-0.6783,-0.6785,-0.6786,-0.6814,0,0,0,0,0,0,-0.6659,-0.6664,-0.6676,-0.6679,-0.6683,-0.6715,-0.669,-0.6689,-0.6697,-0.6694,-0.6699,-0.6699,-0.6694,-0.6719,-0.6723,-0.674,-0.6708,-0.6781,-0.6784,-0.6786,-0.6812,-0.6817,-0.6821,0,0,0,0,0,-0.6657,-0.6684,-0.6677,-0.6681,-0.6698,-0.6716,-0.6718,-0.6711,-0.6698,-0.671,-0.671,-0.6699,-0.6736,-0.6722,-0.6726,-0.6744,-0.678,-0.6783,-0.6786,-0.681,-0.6816,-0.6821,0,0,0,0,0,0,-0.6683,-0.6684,-0.6676,-0.6704,-0.671,-0.6712,-0.6727,-0.6718,-0.6728,-0.6726,-0.6717,-0.6719,-0.6744,-0.6746,-0.673,-0.6775,-0.6756,-0.6759,-0.6773,-0.6778,-0.6783,-0.6782,-0.6709,0,0,0,0,0,-0.6692,-0.6706,-0.6706,-0.6731,-0.6734,-0.673,-0.6737,-0.6732,-0.6738,-0.674,-0.6742,-0.6748,-0.6761,-0.6769,-0.6781,-0.6812,-0.6812,-0.6826,-0.683,-0.6834,-0.6838,-0.6854,-0.686,-0.6796,-0.6796,-0.6796,0,0,-0.6711,-0.6713,-0.6722,-0.6736,-0.674,-0.6754,-0.6732,-0.6749,-0.676,-0.6743,-0.6765,-0.6766,-0.6772,-0.6799,-0.6811,-0.6802,-0.6855,-0.6838,-0.6841,-0.6842,-0.6857,-0.6863,-0.6868,-0.6798,-0.6797,-0.6797,0,0,-0.6753,-0.6756,-0.6776,-0.678,-0.6786,-0.6783,-0.6788,-0.6791,-0.6791,-0.6813,-0.68,-0.6813,-0.6835,-0.684,-0.6845,-0.6887,-0.6878,-0.6891,-0.6916,-0.6931,-0.6936,-0.6941,-0.6956,-0.6962,-0.6895,-0.6895,-0.6895,0,-0.6776,-0.6797,-0.6788,-0.6806,-0.6812,-0.6796,-0.6817,-0.6821,-0.6831,-0.6835,-0.6824,-0.6851,-0.6855,-0.6882,-0.6892,-0.6897,-0.6903,-0.6891,-0.6936,-0.6941,-0.6945,-0.6959,-0.6965,-0.6896,-0.6896,-0.6896,-0.6896,0,-0.6825,-0.684,-0.6856,-0.6865,-0.6872,-0.6892,-0.6886,-0.6895,-0.6888,-0.6886,-0.6908,-0.6911,-0.6923,-0.6929,-0.6923,-0.6956,-0.695,-0.6938,-0.6919,-0.6953,-0.6966,-0.6971,-0.6899,-0.6898,-0.6898,-0.6897,0,0,-0.6885,-0.6887,-0.6894,-0.6897,-0.6901,-0.6913,-0.6931,-0.6942,-0.695,-0.6956,-0.6971,-0.699,-0.6978,-0.6985,-0.6979,-0.6992,-0.7025,-0.6978,-0.6978,-0.6987,-0.7062,-0.7071,-0.7078,-0.7018,-0.7019,-0.702,-0.7061,0,-0.6927,-0.6958,-0.695,-0.698,-0.6994,-0.6978,-0.6994,-0.6998,-0.6997,-0.7008,-0.7006,-0.702,-0.7003,-0.7007,-0.7019,-0.7019,-0.704,-0.7015,-0.7033,-0.7033,-0.7032,-0.7085,-0.7095,-0.7134,-0.7066,-0.7067,-0.7068,0,-0.698,-0.6988,-0.702,-0.7021,-0.7026,-0.7041,-0.705,-0.7061,-0.7065,-0.7063,-0.7069,-0.706,-0.7078,-0.7058,-0.7082,-0.7065,-0.7071,-0.7072,-0.7073,-0.7075,-0.7053,-0.7089,-0.7146,-0.7152,-0.7076,-0.7075,-0.7075,0,-0.7021,-0.704,-0.7061,-0.7064,-0.7066,-0.7077,-0.7078,-0.7081,-0.7088,-0.7096,-0.71,-0.711,-0.7116,-0.7123,-0.7117,-0.7103,-0.7143,-0.7122,-0.7142,-0.7142,-0.7152,-0.7151,-0.7211,-0.7154,-0.7154,-0.7154,-0.7154,0,-0.7069,-0.709,-0.7079,-0.7093,-0.7115,-0.7105,-0.7127,-0.7127,-0.7129,-0.7142,-0.7129,-0.7141,-0.7132,-0.7144,-0.7139,-0.716,-0.7162,-0.7161,-0.716,-0.7163,-0.7163,-0.7168,-0.7165,-0.7156,-0.7155,-0.7155,-0.7155,0,-0.712,-0.7114,-0.7136,-0.7135,-0.7135,-0.7152,-0.7151,-0.7164,-0.716,-0.7177,-0.718,-0.7175,-0.7188,-0.7182,-0.7196,-0.7193,-0.722,-0.7214,-0.7218,-0.7217,-0.7237,-0.7236,-0.7303,-0.7311,-0.7249,-0.7249,-0.725,0,-0.7151,-0.7166,-0.7167,-0.7174,-0.7176,-0.7188,-0.7195,-0.7186,-0.7193,-0.7198,-0.721,-0.7221,-0.723,-0.7251,-0.7249,-0.7259,-0.7255,-0.7277,-0.7256,-0.7259,-0.7256,-0.7255,-0.7257,-0.7282,-0.7283,-0.7284,-0.7284,0,-0.7208,-0.7204,-0.7214,-0.7222,-0.723,-0.7236,-0.7242,-0.7249,-0.7239,-0.7248,-0.7261,-0.7267,-0.7281,-0.7292,-0.7301,-0.7302,-0.7292,-0.729,-0.7296,-0.7299,-0.7301,-0.7301,-0.7231,-0.7289,-0.7289,-0.7288,-0.7288,-0.7288,-0.725,-0.7263,-0.7265,-0.7276,-0.7279,-0.7283,-0.7295,-0.7292,-0.7303,-0.7312,-0.7306,-0.7321,-0.7324,-0.7334,-0.7337,-0.7348,-0.7339,-0.7347,-0.7349,-0.7351,-0.7354,-0.7298,-0.735,-0.735,-0.7349,-0.7349,-0.7349,0,-0.7307,-0.7307,-0.7317,-0.7324,-0.7333,-0.7321,-0.7326,-0.7334,-0.7347,-0.735,-0.7359,-0.7373,-0.7384,-0.7382,-0.7392,-0.7401,-0.7397,-0.7404,-0.7404,-0.7405,-0.7361,-0.7356,-0.7408,-0.7408,-0.7408,-0.7408,-0.7408,-0.7408,-0.7337,-0.7358,-0.7353,-0.7375,-0.7375,-0.7389,-0.7393,-0.7397,-0.74,-0.7416,-0.7424,-0.7423,-0.7424,-0.7434,-0.7443,-0.7442,-0.7447,-0.7456,-0.7454,-0.7413,-0.7408,-0.7402,-0.7397,-0.7457,-0.7457,-0.7496,-0.7496,-0.7497]},{"header":{"parameterUnit":"m.s-1","parameterCategory":1,"la1":30.2991,"la2":30.254,"lo1":-89.0895,"lo2":-89.0444,"dy":0.0017,"dx":0.0017,"nx":28,"ny":28,"refTime":"2024-12-06T03:00:00:Z","depth":0,"parameterNumber":3,"parameterNumberName":"V-component_of_WINDS"},"data":[0,0,0,0,0,0,0,0,0,0,0,0,0,0,0,0,0,0,0,0,0,0,0,0,0,0,0,0,0,0,0,0,0,0,0,0,0,0,0,0,0,0,0,0,0,0,0,0,0,0,0,0,0,0,0,0,0,0,-5.3664,-5.3665,0,-5.3725,-5.3726,-5.3726,-5.3685,-5.3684,-5.3682,-5.368,-5.3737,-5.374,-5.3743,0,0,0,0,0,0,0,0,0,0,0,0,0,-5.3509,-5.3512,-5.3664,-5.3665,-5.3666,-5.3725,-5.3726,-5.3726,-5.3686,-5.3684,-5.3681,-5.3679,-5.3736,-5.374,-5.3744,0,0,0,0,0,0,0,0,0,0,0,0,0,-5.3574,-5.3513,-5.3664,-5.3653,-5.3652,-5.3725,-5.3726,-5.3727,-5.3686,-5.3683,-5.3681,-5.3678,-5.3735,-5.374,-5.3744,-5.383,0,0,-5.3759,-5.3761,0,0,0,0,0,0,0,0,-5.357,-5.3579,-5.3654,-5.3654,-5.3653,-5.3695,-5.3692,-5.3761,-5.3687,-5.3673,-5.368,-5.3677,-5.3725,-5.373,-5.3748,-5.3832,-5.3835,-5.376,-5.3762,-5.3765,-5.3766,0,0,0,0,0,0,0,-5.3566,-5.3576,-5.3688,-5.3655,-5.3655,-5.3643,-5.3649,-5.3705,-5.3714,-5.3674,-5.3671,-5.3679,-5.3724,-5.3743,-5.3749,-5.3835,-5.3759,-5.3764,-5.3767,-5.3769,-5.3994,-5.3997,0,0,0,0,0,0,-5.3563,-5.3573,-5.3686,-5.369,-5.3604,-5.3648,-5.3655,-5.3684,-5.3713,-5.3715,-5.3682,-5.3677,-5.3736,-5.3743,-5.3751,-5.3853,-5.3765,-5.3769,-5.3772,-5.3991,-5.3994,-5.3998,0,0,0,0,0,0,-5.356,-5.3573,-5.3684,-5.3631,-5.3644,-5.3654,-5.3687,-5.3687,-5.3706,-5.3719,-5.372,-5.37,-5.3734,-5.3744,-5.3811,-5.3854,-5.3771,-5.3776,-5.3987,-5.3992,-5.3996,-5.4058,0,0,0,0,0,0,-5.3555,-5.3572,-5.3606,-5.3632,-5.3647,-5.3744,-5.369,-5.369,-5.3715,-5.371,-5.3736,-5.3737,-5.3733,-5.3804,-5.3816,-5.386,-5.3779,-5.3983,-5.3989,-5.3995,-5.4052,-5.4065,-5.4075,0,0,0,0,0,-5.355,-5.362,-5.3608,-5.3622,-5.3689,-5.3747,-5.3755,-5.375,-5.3719,-5.3752,-5.376,-5.3737,-5.3848,-5.3811,-5.3824,-5.387,-5.398,-5.3987,-5.3994,-5.4047,-5.4062,-5.4075,0,0,0,0,0,0,-5.3596,-5.3623,-5.361,-5.369,-5.3717,-5.374,-5.3782,-5.3766,-5.38,-5.3794,-5.3784,-5.3791,-5.3861,-5.3872,-5.3831,-5.3954,-5.3909,-5.3919,-5.3945,-5.3959,-5.397,-5.3966,-5.3784,0,0,0,0,0,-5.3616,-5.3662,-5.3682,-5.3751,-5.3766,-5.3772,-5.3796,-5.379,-5.3817,-5.3827,-5.384,-5.3866,-5.3906,-5.3933,-5.3971,-5.4054,-5.4059,-5.4092,-5.4103,-5.4112,-5.4121,-5.4166,-5.4181,-5.402,-5.402,-5.402,0,0,-5.3657,-5.3677,-5.3707,-5.3761,-5.3781,-5.3828,-5.3781,-5.3832,-5.3867,-5.3834,-5.3899,-5.391,-5.3937,-5.4013,-5.4047,-5.4024,-5.4166,-5.4121,-5.4128,-5.4132,-5.4175,-5.419,-5.4203,-5.4025,-5.4024,-5.4023,0,0,-5.3756,-5.3776,-5.3836,-5.3858,-5.3889,-5.3893,-5.3908,-5.3934,-5.394,-5.4005,-5.3982,-5.4022,-5.4092,-5.4113,-5.4133,-5.4241,-5.4221,-5.4254,-5.4312,-5.4356,-5.4369,-5.438,-5.4419,-5.4433,-5.4262,-5.4262,-5.4262,0,-5.3802,-5.3874,-5.3869,-5.3923,-5.3947,-5.3922,-5.3983,-5.4003,-5.4045,-5.4062,-5.4036,-5.4125,-5.4141,-5.4222,-5.4249,-5.4265,-5.4281,-5.4251,-5.4368,-5.4379,-5.4389,-5.4427,-5.4441,-5.4266,-5.4266,-5.4265,-5.4265,0,-5.393,-5.398,-5.4024,-5.4068,-5.4097,-5.4154,-5.4157,-5.4187,-5.4178,-5.4184,-5.4251,-5.427,-5.4312,-5.4331,-5.4322,-5.441,-5.4396,-5.4369,-5.4323,-5.4409,-5.4443,-5.4458,-5.4272,-5.427,-5.4269,-5.4268,0,0,-5.4059,-5.41,-5.4117,-5.4137,-5.417,-5.4208,-5.4263,-5.4306,-5.4333,-5.4362,-5.4408,-5.4469,-5.4445,-5.4467,-5.4461,-5.4499,-5.4585,-5.4468,-5.4469,-5.449,-5.4684,-5.4704,-5.4721,-5.4572,-5.4574,-5.4576,-5.4682,0,-5.416,-5.426,-5.4257,-5.4349,-5.4395,-5.4372,-5.442,-5.4445,-5.4453,-5.4491,-5.4498,-5.4542,-5.4507,-5.4521,-5.4558,-5.4567,-5.4624,-5.4559,-5.4614,-5.4616,-5.4608,-5.4739,-5.476,-5.4859,-5.4695,-5.4698,-5.4699,0,-5.4292,-5.4329,-5.4426,-5.4454,-5.4473,-5.4516,-5.4556,-5.4594,-5.4622,-5.4624,-5.465,-5.4638,-5.4693,-5.4646,-5.4721,-5.4677,-5.4699,-5.4707,-5.4711,-5.4716,-5.4663,-5.4748,-5.489,-5.4905,-5.4721,-5.4719,-5.4717,0,-5.4378,-5.4451,-5.4519,-5.4536,-5.457,-5.4602,-5.4617,-5.4642,-5.4668,-5.4702,-5.4719,-5.4759,-5.478,-5.481,-5.4809,-5.4774,-5.4886,-5.4838,-5.4889,-5.4889,-5.4913,-5.4912,-5.5062,-5.4927,-5.4927,-5.4926,-5.4926,0,-5.4491,-5.4552,-5.4558,-5.46,-5.4666,-5.4662,-5.4728,-5.474,-5.4763,-5.4806,-5.4787,-5.4827,-5.4822,-5.4862,-5.4861,-5.4924,-5.4933,-5.4936,-5.4935,-5.4939,-5.4939,-5.4953,-5.4947,-5.493,-5.4929,-5.4929,-5.4928,0,-5.4598,-5.4605,-5.4678,-5.4705,-5.4713,-5.4761,-5.4783,-5.4822,-5.4828,-5.4883,-5.4895,-5.4904,-5.4951,-5.4952,-5.5004,-5.5003,-5.5081,-5.5071,-5.5072,-5.5071,-5.5122,-5.5117,-5.5287,-5.5309,-5.5159,-5.5161,-5.5162,0,-5.4671,-5.4717,-5.475,-5.4779,-5.4797,-5.4842,-5.487,-5.4867,-5.4896,-5.4932,-5.4967,-5.5012,-5.5048,-5.5123,-5.5133,-5.5173,-5.5165,-5.5222,-5.5171,-5.5173,-5.5167,-5.5165,-5.5169,-5.5232,-5.5234,-5.5235,-5.5236,0,-5.4799,-5.4801,-5.4842,-5.4886,-5.492,-5.4953,-5.4983,-5.5007,-5.5008,-5.5042,-5.509,-5.5118,-5.5173,-5.5218,-5.5257,-5.5271,-5.5254,-5.5252,-5.5266,-5.527,-5.5269,-5.5271,-5.51,-5.5248,-5.5247,-5.5246,-5.5245,-5.5245,-5.4892,-5.4932,-5.4963,-5.501,-5.5033,-5.5063,-5.5101,-5.5113,-5.5154,-5.52,-5.5195,-5.5249,-5.5276,-5.5327,-5.5345,-5.5386,-5.5366,-5.5386,-5.5391,-5.5396,-5.5403,-5.5262,-5.5393,-5.5392,-5.5392,-5.5392,-5.5391,0,-5.502,-5.5039,-5.5082,-5.5127,-5.5164,-5.5147,-5.518,-5.5211,-5.526,-5.5287,-5.5324,-5.5379,-5.5423,-5.5437,-5.548,-5.551,-5.5503,-5.5521,-5.5519,-5.5523,-5.5417,-5.5401,-5.5526,-5.5526,-5.5526,-5.5526,-5.5526,-5.5526,-5.5091,-5.5159,-5.5165,-5.5244,-5.5261,-5.5316,-5.5337,-5.5364,-5.5385,-5.5449,-5.5487,-5.5496,-5.5518,-5.5562,-5.5601,-5.5604,-5.562,-5.5642,-5.5642,-5.5543,-5.553,-5.5517,-5.5502,-5.5646,-5.5646,-5.5744,-5.5745,-5.5745]}]]